Regional Weather Roundup
Issued by NWS

Home | Current Version | Previous Version | Text Only | Print | Product List | Glossary On
Versions: 1 2 3 4 5 6 7 8 9 10 11 12 13 14 15 16 17 18 19 20 21 22 23 24 25 26 27 28 29 30 31 32 33 34 35 36 37 38 39 40 41 42 43 44 45 46 47 48 49 50
000
ASUS43 KOAX 031210
RWRNE

WEATHER ROUNDUP FOR NEBRASKA
NATIONAL WEATHER SERVICE OMAHA NE
600 AM CST TUE MAR 03 2015

NOTES: SATELLITE DATA IS BEING USED TO AUGMENT CLOUD COVER ABOVE
       12000 FEET.
       "FAIR" INDICATES FEW OR NO CLOUDS BELOW 12,000 FEET WITH NO
       SIGNIFICANT WEATHER AND/OR OBSTRUCTIONS TO VISIBILITY.

  * THESE STATIONS DO NOT REPORT WEATHER SUCH AS RAIN...SNOW OR FOG.

NEZ001>004-019>022-054>056-031300-
NEBRASKA PANHANDLE

CITY           SKY/WX    TMP DP  RH WIND       PRES   REMARKS
SCOTTSBLUFF    CLOUDY    25  19  78 N16       29.80R WCI  12
6HR MIN TEMP:  25; 6HR MAX TEMP:  31; 6HR PCP:  0.07;

ALLIANCE       CLOUDY    21  17  84 N31G43    29.75R WCI   2
6HR MIN TEMP:  21; 6HR MAX TEMP:  30; 6HR PCP: TRACE;

CHADRON        FOG       18  14  84 NE23G31   29.87R VSB 1   WCI   0
6HR MIN TEMP:  18; 6HR MAX TEMP:  31; 6HR PCP: TRACE;

KIMBALL        MOCLDY    24  22  89 N22G30    29.71R WCI   9
SIDNEY         CLOUDY    28  25  88 N26G37    29.73R WCI  13
6HR MIN TEMP:  28; 6HR MAX TEMP:  29; 6HR PCP: TRACE;

$$

NEZ057>060-069>072-079>082-031300-
SOUTHWEST NEBRASKA

CITY           SKY/WX    TMP DP  RH WIND       PRES   REMARKS
NORTH PLATTE   CLOUDY    28  25  88 W9        29.67R WCI  19
6HR MIN TEMP:  27; 6HR MAX TEMP:  29;

IMPERIAL         N/A     29  27  92 N12       29.66R FOG     WCI  19
6HR MIN TEMP:  28; 6HR MAX TEMP:  30;

LEXINGTON      CLOUDY    29  24  81 NW7       29.66R WCI  22
MCCOOK         CLOUDY    29  23  78 NW8       29.66R WCI  21
6HR MIN TEMP:  29; 6HR MAX TEMP:  32;

OGALLALA       CLOUDY    31  31  99 NW10      29.70R FOG     WCI  22
$$

NEZ005>010-023>029-035>040-094-031300-
NORTH CENTRAL NEBRASKA

CITY           SKY/WX    TMP DP  RH WIND       PRES   REMARKS
VALENTINE      LGT SNOW  23  18  81 N23G41    29.73R WCI   7
6HR MIN TEMP:  23; 6HR MAX TEMP:  32; 6HR PCP:  0.02;

AINSWORTH      CLOUDY    29  26  89 N33G40    29.69R FOG     WCI  12
BROKEN BOW     CLOUDY    28  22  78 NW7       29.65R WCI  21
6HR MIN TEMP:  27; 6HR MAX TEMP:  29;

O`NEILL        CLOUDY    29  25  84 W12       29.67R WCI  19
ORD            CLOUDY    27  21  78 W8        29.67R WCI  19
6HR MIN TEMP:  25; 6HR MAX TEMP:  29;

THEDFORD       MIX PCPN  32  30  93 N15G21    29.66R WCI  22
$$

NEZ041-046>049-061>064-073>077-083>087-031300-
SOUTH CENTRAL NEBRASKA

CITY           SKY/WX    TMP DP  RH WIND       PRES   REMARKS
GRAND ISLAND   CLOUDY    29  25  85 CALM      29.63S
6HR MIN TEMP:  28; 6HR MAX TEMP:  29;

AURORA         CLOUDY    29  28  94 CALM      29.60F FOG
HASTINGS       CLOUDY    30  24  78 CALM      29.60F
6HR MIN TEMP:  28; 6HR MAX TEMP:  30;

HEBRON         CLOUDY    35  29  81 SW6       29.64R WCI  30
HOLDREGE       CLOUDY    28  23  82 NW6       29.64R WCI  21
KEARNEY *      CLOUDY    28  21  74 NW7       29.64R WCI  21
YORK           CLOUDY    30  28  93 S3        29.62F FOG
$$

NEZ011>018-030>034-042>045-031300-
NORTHEAST NEBRASKA

CITY           SKY/WX    TMP DP  RH WIND       PRES   REMARKS
NORFOLK        CLOUDY    28  27  96 SE3       29.60F FOG
6HR MIN TEMP:  28; 6HR MAX TEMP:  31;

ALBION         CLOUDY    29  23  79 W6        29.67R WCI  22
BLAIR          CLOUDY    31  29  92 S7        29.64F FOG     WCI  25
COLUMBUS *     CLOUDY    30  21  69 SW3       29.65F
FREMONT        CLOUDY    32  31  96 S3        29.66F FOG
TEKAMAH        CLOUDY    31  28  89 S7        29.68S FOG     WCI  24
6HR MIN TEMP:  31; 6HR MAX TEMP:  33;

WAYNE          CLOUDY    28  27  93 SW5       29.67S FOG     WCI  23
$$

NEZ050>053-065>068-078-088>093-031300-
SOUTHEAST NEBRASKA

CITY           SKY/WX    TMP DP  RH WIND       PRES   REMARKS
LINCOLN        FOG       32  32 100 S3        29.66S VSB 1/2
6HR MIN TEMP:  31; 6HR MAX TEMP:  32;

OMAHA EPPLEY   FRZ DRZL  31  29  92 S10       29.67S FOG     WCI  22
6HR MIN TEMP:  31; 6HR MAX TEMP:  32; 6HR PCP: TRACE;

BEATRICE       CLOUDY    34  33  95 S12       29.65S FOG     WCI  25
FALLS CITY     CLOUDY    35  33  92 S12       29.69F FOG     WCI  27
6HR MIN TEMP:  33; 6HR MAX TEMP:  35; 6HR PCP: TRACE;

NEBRASKA CITY  CLOUDY    33  33 100 S10       29.66F FOG     WCI  25
PLATTSMOUTH    CLOUDY    31  29  93 SE7       29.65F FOG     WCI  24
$$

NEZ044-045-051>053-067-031300-
OMAHA AREA

CITY           SKY/WX    TMP DP  RH WIND       PRES   REMARKS
OMAHA EPPLEY   FRZ DRZL  31  29  92 S10       29.67S FOG     WCI  22
6HR MIN TEMP:  31; 6HR MAX TEMP:  32; 6HR PCP: TRACE;

BLAIR          CLOUDY    31  29  92 S7        29.64F FOG     WCI  25
FREMONT        CLOUDY    32  31  96 S3        29.66F FOG
MILLARD        DRIZZLE   32  30  93 SE3       29.66F
OFFUTT AFB     FRZ DRZL  31  30  95 SE6       29.65F FOG     WCI  26
PLATTSMOUTH    CLOUDY    31  29  93 SE7       29.65F FOG     WCI  24
WAHOO          MIX PCPN  31  29  92 S3        29.65F VSB 1
$$


USA.gov is the U.S. government's official web portal to all federal, state and local government web resources and services.